EW2889 Weather Reports


time (UTC)temp
C
wind
direction
speed
KPH
gust
KPH
rain 1hr
cm
rain 24hr
cm
rain mn
cm
humidity
%
barometer
mb
20260503200053 17 326 0.0 0.0 0.00 0.00 0.00 34 1015.8
20260503194601 17 314 0.0 0.0 0.00 0.00 0.00 33 1015.9
20260503193014 17 275 0.0 0.0 0.00 0.00 0.00 33 1016.1
20260503191535 16 294 0.0 0.0 0.00 0.00 0.00 35 1016.2
20260503190044 17 269 0.0 0.0 0.00 0.03 0.00 36 1016.4
20260503184604 17 290 0.0 0.0 0.00 0.03 0.00 36 1016.5
20260503183017 16 306 0.0 0.0 0.00 0.03 0.00 36 1016.7
20260503181527 16 326 0.0 0.0 0.00 0.03 0.00 36 1016.8
20260503180056 16 290 0.0 0.0 0.00 0.08 0.00 36 1016.6
20260503174505 16 342 0.0 3.2 0.00 0.08 0.00 37 1016.8
20260503173027 16 300 0.0 0.0 0.00 0.08 0.00 38 1017.0
20260503171546 15 276 0.0 0.0 0.00 0.08 0.00 40 1017.0
20260503140110 13 281 0.0 0.0 0.00 0.20 0.00 46 1017.5
20260503090104 7 290 0.0 0.0 0.00 0.25 0.00 89 1013.7
20260503081538 7 290 0.0 0.0 0.00 0.25 0.00 87 1013.3
20260503071609 7 289 0.0 0.0 0.00 0.25 0.00 87 1012.6
20260503054549 8 63 0.0 0.0 0.00 0.25 0.00 83 1011.9
20260503053047 9 63 0.0 0.0 0.00 0.25 0.00 81 1012.0
20260503051503 10 63 0.0 0.0 0.00 0.25 0.00 79 1012.2
20260503050028 10 63 0.0 0.0 0.00 0.25 0.00 76 1012.1
20260503044540 11 63 0.0 0.0 0.00 0.25 0.00 73 1012.2
20260503043056 11 63 0.0 0.0 0.00 0.25 0.00 71 1012.2
20260503041506 11 63 0.0 0.0 0.00 0.25 0.00 71 1012.1
20260503040022 11 63 0.0 0.0 0.00 0.25 0.25 70 1012.2
20260503034536 11 63 0.0 0.0 0.00 0.25 0.25 72 1012.2
20260503033048 11 63 0.0 0.0 0.00 0.25 0.25 67 1012.1
20260503031531 11 63 0.0 0.0 0.00 0.25 0.25 67 1012.0
20260503030056 11 63 0.0 0.0 0.00 0.25 0.25 67 1012.0
20260503024519 12 63 0.0 0.0 0.00 0.25 0.25 66 1012.2
20260503023033 12 63 0.0 0.0 0.00 0.25 0.25 65 1012.2
20260503021548 12 63 0.0 0.0 0.00 0.25 0.25 65 1012.2
20260503020054 12 63 0.0 0.0 0.00 0.25 0.25 65 1012.2
20260503014501 12 63 0.0 0.0 0.00 0.25 0.25 65 1012.1
20260503013032 12 63 0.0 0.0 0.00 0.25 0.25 63 1011.7
20260503011548 12 63 0.0 0.0 0.00 0.25 0.25 63 1011.7
20260503010014 12 63 0.0 0.0 0.00 0.25 0.25 61 1011.8
20260503004531 12 84 0.0 0.0 0.00 0.25 0.25 60 1011.6
20260503003048 12 82 0.0 0.0 0.00 0.25 0.25 59 1011.3
20260503001515 12 70 0.0 0.0 0.00 0.25 0.25 55 1011.3
20260503000030 12 70 0.0 0.0 0.00 0.25 0.25 51 1011.2
20260502234552 12 13 0.0 0.0 0.00 0.25 0.25 49 1011.1
20260502233102 12 76 0.0 0.0 0.00 0.25 0.25 55 1010.8
20260502231517 13 57 0.0 1.6 0.00 0.25 0.25 54 1011.0
20260502230043 13 49 0.0 0.0 0.00 0.25 0.25 57 1010.8
20260502224605 13 15 0.0 0.0 0.00 0.25 0.25 57 1010.8
20260502223019 13 59 0.0 0.0 0.00 0.25 0.25 55 1010.9
20260502221540 13 28 0.0 0.0 0.00 0.25 0.25 54 1011.1
20260502220055 13 143 0.0 0.0 0.00 0.25 0.25 59 1010.9
20260502214514 13 14 0.0 0.0 0.00 0.25 0.25 61 1010.8
20260502213035 14 304 0.0 0.0 0.00 0.25 0.25 61 1010.7
20260502211548 14 342 0.0 0.0 0.00 0.25 0.25 60 1010.6
20260502210002 14 48 0.0 0.0 0.00 0.25 0.25 58 1010.5
20260502204522 14 25 0.0 0.0 0.00 0.25 0.25 58 1010.6
20260502203019 14 290 0.0 3.2 0.00 0.25 0.25 56 1010.5
20260502201548 14 76 0.0 0.0 0.00 0.25 0.25 59 1010.4